カタログに戻る

COSMOS 1191 DEB

運用中HEO
NORAD 12834·DEBRIS·🇷🇺 Russia

打ち上げ Jul 2, 1980 から Plesetsk Cosmodrome

Loading…

次のパス (今後24時間)

TLE

最新Source: Space-Track

元期: Sep 14, 2026, 02:02 UTC

1 12834U 80057F   26257.08525546  .00000150  00000-0  00000-0 0  9991
2 12834  65.7604  94.5543 6625586  21.6529 356.7886  2.00151230243063

AllMySatでCOSMOS 1191 DEBをリアルタイム追跡

Download on the App Store